STARLINK-1942

Last updated on Tue Nov 24 2020 00:02:03 GMT+0000 (Coordinated Universal Time)

1 46794U 20074BH 20328.58334491 -.00163074 00000-0 -18082-2 0 9999 2 46794 53.0549 13.4212 0001493 53.7615 12.4132 15.62793283 1858

Satellite not in orbit

STARLINK-1942